QPF
0.00 0.00 0.00 0.00 0.00 0.00 0.00 0.00 0.00 0.00 0.00 0.00 0.00 0.00 0.02 0.01 0.00 0.00 0.00 0.00 0.00 0.00 0.01 0.01 0.04 0.02 0.00 0.00 0.00 0.00 0.00 0.00 0.00 0.00 0.00 0.00 0.00 0.00 0.00 0.00 0.00 0.00 0.00 0.00 0.00 0.00 0.00 0.00 0.00
0.00 0.00 0.00 0.00 0.00 0.00 0.01 0.00 0.00 0.00 0.00 0.00 0.00 0.00 0.00 0.00 0.00 0.00 0.01 0.01 0.00 0.02 0.04 0.03 0.07 0.04 0.00 0.00 0.00 0.00 0.00 0.00 0.00 0.00 0.03 0.00 0.00 0.00 0.00 0.00 0.01 0.02 0.00 0.00 0.00 0.00 0.00 0.00 0.00
0.05 0.02 0.00 0.00 0.00 0.01 0.01 0.00 0.00 0.00 0.00 0.00 0.00 0.00 0.00 0.00 0.00 0.00 0.00 0.00 0.00 0.00 0.01 0.08 0.06 0.02 0.01 0.01 0.00 0.00 0.00 0.00 0.00 0.00 0.00 0.00 0.00 0.00 0.00 0.02 0.01 0.00 0.00 0.00 0.00 0.00 0.00 0.00 0.00
0.10 0.06 0.01 0.04 0.06 0.00 0.00 0.00 0.00 0.00 0.00 0.00 0.00 0.00 0.00 0.00 0.00 0.00 0.00 0.00 0.00 0.00 0.00 0.02 0.11 0.02 0.01 0.01 0.00 0.00 0.00 0.00 0.00 0.00 0.01 0.00 0.00 0.00 0.00 0.00 0.00 0.00 0.00 0.00 0.00 0.00 0.00 0.00 0.00
0.08 0.05 0.01 0.03 0.02 0.00 0.00 0.00 0.00 0.01 0.00 0.00 0.00 0.00 0.00 0.00 0.00 0.00 0.00 0.00 0.00 0.00 0.00 0.06 0.13 0.03 0.00 0.01 0.00 0.00 0.01 0.02 0.00 0.00 0.00 0.00 0.00 0.00 0.00 0.00 0.00 0.00 0.00 0.00 0.00 0.00 0.00 0.00 0.00
0.06 0.02 0.01 0.02 0.03 0.00 0.00 0.00 0.00 0.00 0.00 0.00 0.00 0.00 0.00 0.00 0.00 0.00 0.00 0.00 0.00 0.00 0.00 0.06 0.09 0.01 0.00 0.00 0.00 0.00 0.00 0.02 0.00 0.00 0.00 0.00 0.00 0.00 0.00 0.00 0.00 0.00 0.00 0.00 0.00 0.00 0.00 0.00 0.00
0.10 0.10 0.05 0.11 0.05 0.00 0.00 0.00 0.00 0.00 0.00 0.00 0.00 0.00 0.00 0.00 0.00 0.00 0.00 0.00 0.00 0.00 0.00 0.00 0.00 0.01 0.00 0.00 0.00 0.01 0.00 0.00 0.00 0.00 0.00 0.00 0.00 0.00 0.00 0.00 0.00 0.00 0.00 0.00 0.00 0.00 0.00 0.00 0.00
0.15 0.06 0.06 0.09 0.07 0.02 0.00 0.00 0.00 0.00 0.00 0.00 0.00 0.00 0.00 0.00 0.00 0.00 0.00 0.00 0.00 0.00 0.00 0.00 0.00 0.00 0.00 0.00 0.00 0.00 0.00 0.00 0.00 0.00 0.00 0.00 0.00 0.00 0.00 0.00 0.00 0.00 0.00 0.00 0.00 0.00 0.00 0.00 0.00
0.16 0.01 0.02 0.06 0.05 0.02 0.00 0.01 0.00 0.00 0.00 0.00 0.00 0.00 0.00 0.00 0.00 0.00 0.00 0.00 0.00 0.00 0.00 0.00 0.00 0.00 0.00 0.00 0.00 0.00 0.00 0.00 0.00 0.00 0.00 0.00 0.00 0.00 0.00 0.00 0.00 0.00 0.00 0.00 0.00 0.00 0.00 0.00 0.00
0.07 0.04 0.03 0.02 0.00 0.01 0.00 0.02 0.00 0.00 0.00 0.00 0.00 0.00 0.00 0.00 0.00 0.00 0.00 0.00 0.00 0.00 0.00 0.00 0.00 0.00 0.00 0.00 0.00 0.00 0.00 0.00 0.00 0.00 0.00 0.00 0.00 0.00 0.00 0.00 0.00 0.00 0.00 0.00 0.00 0.00 0.00 0.00 0.00
0.01 0.05 0.01 0.00 0.01 0.07 0.06 0.01 0.00 0.00 0.00 0.00 0.00 0.00 0.00 0.01 0.02 0.00 0.00 0.00 0.00 0.00 0.00 0.00 0.00 0.00 0.00 0.00 0.00 0.00 0.01 0.02 0.00 0.00 0.00 0.00 0.00 0.00 0.00 0.00 0.00 0.00 0.00 0.00 0.00 0.00 0.00 0.00 0.00
0.01 0.02 0.01 0.00 0.02 0.07 0.03 0.02 0.00 0.00 0.00 0.00 0.00 0.00 0.00 0.01 0.03 0.00 0.00 0.00 0.00 0.00 0.00 0.00 0.00 0.00 0.00 0.00 0.00 0.00 0.02 0.00 0.00 0.00 0.00 0.00 0.00 0.00 0.00 0.00 0.00 0.02 0.00 0.01 0.01 0.01 0.01 0.01 0.02
0.07 0.01 0.01 0.04 0.06 0.01 0.00 0.00 0.00 0.00 0.00 0.00 0.00 0.00 0.00 0.00 0.01 0.00 0.00 0.00 0.00 0.00 0.00 0.00 0.00 0.00 0.00 0.00 0.00 0.00 0.00 0.00 0.00 0.01 0.00 0.00 0.00 0.00 0.00 0.01 0.01 0.03 0.01 0.00 0.00 0.02 0.08 0.07 0.07
0.09 0.03 0.01 0.04 0.02 0.01 0.04 0.01 0.00 0.00 0.00 0.00 0.00 0.00 0.03 0.00 0.00 0.01 0.01 0.00 0.00 0.00 0.00 0.00 0.00 0.00 0.01 0.00 0.00 0.00 0.00 0.00 0.02 0.01 0.00 0.00 0.00 0.00 0.00 0.01 0.00 0.00 0.00 0.00 0.00 0.03 0.17 0.26 0.19
0.01 0.00 0.01 0.03 0.00 0.00 0.02 0.03 0.00 0.00 0.00 0.00 0.00 0.00 0.00 0.00 0.00 0.02 0.01 0.00 0.00 0.01 0.00 0.00 0.00 0.00 0.00 0.01 0.01 0.00 0.00 0.00 0.00 0.01 0.00 0.00 0.00 0.00 0.00 0.00 0.00 0.01 0.00 0.00 0.00 0.05 0.14 0.18 0.21
0.16 0.05 0.02 0.01 0.00 0.00 0.00 0.01 0.00 0.00 0.00 0.00 0.00 0.00 0.00 0.00 0.00 0.00 0.00 0.00 0.00 0.01 0.00 0.00 0.00 0.00 0.00 0.03 0.00 0.00 0.00 0.00 0.00 0.04 0.01 0.02 0.00 0.00 0.00 0.01 0.00 0.00 0.00 0.00 0.01 0.02 0.06 0.09 0.19
0.04 0.01 0.00 0.00 0.00 0.00 0.00 0.00 0.00 0.00 0.00 0.00 0.00 0.00 0.00 0.00 0.00 0.00 0.00 0.00 0.00 0.00 0.00 0.00 0.00 0.00 0.00 0.01 0.01 0.00 0.00 0.01 0.01 0.03 0.00 0.00 0.00 0.01 0.00 0.01 0.00 0.00 0.00 0.02 0.03 0.02 0.07 0.02 0.08
0.01 0.00 0.00 0.00 0.00 0.00 0.00 0.00 0.00 0.00 0.00 0.00 0.00 0.00 0.00 0.00 0.00 0.00 0.00 0.00 0.00 0.00 0.00 0.00 0.00 0.00 0.00 0.00 0.00 0.00 0.01 0.01 0.02 0.01 0.00 0.01 0.01 0.00 0.00 0.00 0.00 0.00 0.00 0.02 0.01 0.03 0.07 0.03 0.00
0.01 0.00 0.00 0.00 0.00 0.00 0.00 0.00 0.00 0.00 0.00 0.00 0.00 0.00 0.00 0.00 0.00 0.00 0.00 0.00 0.00 0.00 0.00 0.00 0.00 0.00 0.01 0.00 0.00 0.00 0.01 0.00 0.06 0.02 0.02 0.04 0.01 0.01 0.00 0.00 0.00 0.00 0.00 0.00 0.00 0.01 0.05 0.05 0.03
0.01 0.00 0.00 0.00 0.00 0.01 0.00 0.00 0.00 0.00 0.00 0.00 0.00 0.00 0.00 0.00 0.00 0.00 0.00 0.00 0.00 0.00 0.00 0.00 0.00 0.00 0.00 0.00 0.00 0.00 0.00 0.00 0.01 0.01 0.00 0.02 0.01 0.00 0.00 0.00 0.00 0.00 0.00 0.01 0.00 0.02 0.07 0.03 0.03
0.00 0.00 0.00 0.00 0.01 0.01 0.02 0.01 0.00 0.00 0.00 0.00 0.00 0.00 0.00 0.00 0.00 0.00 0.00 0.00 0.00 0.00 0.00 0.00 0.00 0.00 0.00 0.00 0.00 0.01 0.00 0.01 0.01 0.02 0.04 0.01 0.02 0.02 0.00 0.00 0.00 0.00 0.00 0.01 0.00 0.02 0.05 0.06 0.07
0.00 0.00 0.00 0.00 0.04 0.04 0.04 0.01 0.00 0.00 0.00 0.00 0.00 0.00 0.00 0.00 0.00 0.00 0.00 0.00 0.00 0.00 0.00 0.00 0.00 0.00 0.00 0.00 0.03 0.00 0.00 0.01 0.00 0.00 0.00 0.01 0.03 0.04 0.00 0.01 0.01 0.01 0.02 0.01 0.01 0.00 0.02 0.05 0.04
0.00 0.00 0.00 0.00 0.00 0.02 0.03 0.03 0.00 0.00 0.00 0.00 0.00 0.00 0.00 0.00 0.01 0.00 0.00 0.00 0.00 0.00 0.00 0.00 0.00 0.00 0.00 0.00 0.05 0.03 0.01 0.00 0.01 0.00 0.00 0.00 0.02 0.03 0.02 0.04 0.04 0.03 0.03 0.03 0.04 0.01 0.03 0.03 0.03
0.00 0.00 0.00 0.01 0.02 0.01 0.00 0.01 0.01 0.01 0.00 0.00 0.00 0.00 0.00 0.00 0.00 0.00 0.00 0.00 0.00 0.00 0.00 0.00 0.00 0.00 0.00 0.00 0.01 0.03 0.02 0.01 0.00 0.00 0.01 0.00 0.01 0.03 0.01 0.03 0.02 0.02 0.01 0.01 0.00 0.00 0.00 0.03 0.05
0.00 0.00 0.00 0.01 0.00 0.00 0.00 0.01 0.03 0.02 0.05 0.05 0.00 0.00 0.00 0.00 0.00 0.00 0.00 0.00 0.00 0.00 0.00 0.00 0.00 0.00 0.00 0.00 0.00 0.00 0.01 0.03 0.01 0.01 0.02 0.00 0.00 0.01 0.00 0.00 0.01 0.00 0.00 0.00 0.00 0.00 0.00 0.02 0.02
0.00 0.00 0.00 0.00 0.00 0.00 0.00 0.00 0.00 0.01 0.02 0.07 0.05 0.00 0.00 0.00 0.00 0.00 0.00 0.00 0.00 0.01 0.02 0.00 0.00 0.00 0.00 0.00 0.00 0.00 0.00 0.03 0.02 0.04 0.03 0.01 0.01 0.02 0.00 0.01 0.02 0.00 0.00 0.00 0.00 0.00 0.00 0.00 0.01
0.00 0.00 0.00 0.00 0.00 0.00 0.00 0.03 0.03 0.02 0.05 0.02 0.02 0.02 0.00 0.00 0.00 0.00 0.00 0.00 0.01 0.00 0.03 0.01 0.01 0.00 0.00 0.00 0.00 0.00 0.01 0.02 0.03 0.04 0.02 0.05 0.01 0.01 0.00 0.03 0.04 0.00 0.00 0.00 0.01 0.00 0.00 0.00 0.00
0.00 0.00 0.00 0.00 0.00 0.00 0.00 0.00 0.00 0.00 0.03 0.03 0.04 0.03 0.01 0.00 0.00 0.00 0.00 0.00 0.01 0.03 0.07 0.03 0.01 0.00 0.00 0.00 0.00 0.00 0.00 0.00 0.05 0.06 0.01 0.00 0.00 0.00 0.01 0.04 0.02 0.01 0.00 0.01 0.01 0.01 0.00 0.00 0.00
0.00 0.00 0.00 0.00 0.00 0.00 0.00 0.00 0.00 0.00 0.00 0.00 0.06 0.07 0.01 0.00 0.01 0.00 0.00 0.01 0.06 0.02 0.06 0.11 0.10 0.04 0.00 0.00 0.00 0.01 0.00 0.00 0.03 0.02 0.01 0.02 0.00 0.01 0.00 0.03 0.04 0.01 0.00 0.02 0.04 0.02 0.00 0.00 0.00
0.00 0.00 0.00 0.00 0.00 0.00 0.00 0.00 0.00 0.00 0.00 0.01 0.02 0.13 0.08 0.02 0.03 0.04 0.00 0.04 0.04 0.02 0.01 0.13 0.38 0.33 0.12 0.05 0.01 0.01 0.00 0.00 0.00 0.01 0.00 0.00 0.00 0.00 0.01 0.01 0.04 0.02 0.02 0.00 0.02 0.02 0.00 0.01 0.00
MSLP
1009.77 1009.74 1009.87 1010.13 1011.08 1011.11 1010.62 1010.14 1009.22 1009.23 1009.98 1010.66 1010.37 1010.80 1011.81 1012.75 1013.19 1014.57 1014.48 1014.90 1014.97 1015.22 1015.23 1015.16 1015.15 1015.26 1015.41 1015.40 1015.27 1015.18 1014.81 1014.97 1015.52 1015.82 1015.90 1016.00 1016.02 1016.18 1016.11 1016.21 1016.19 1016.15 1016.21 1016.38 1016.40 1016.39 1016.51 1016.58 1016.56
1010.11 1009.97 1010.31 1010.73 1011.40 1011.48 1011.10 1009.99 1009.75 1009.68 1010.33 1010.40 1010.75 1011.46 1012.08 1013.43 1013.70 1014.48 1015.00 1015.01 1014.86 1015.19 1015.24 1015.30 1015.39 1015.36 1015.52 1015.67 1015.57 1015.44 1015.30 1015.24 1015.73 1016.07 1016.14 1016.11 1016.18 1016.32 1016.31 1016.38 1016.39 1016.41 1016.49 1016.47 1016.55 1016.66 1016.81 1016.81 1016.77
1009.99 1010.36 1011.37 1011.84 1012.17 1011.62 1010.97 1010.10 1009.90 1010.07 1010.13 1009.96 1011.05 1011.78 1012.60 1013.68 1014.12 1014.58 1014.65 1014.91 1015.02 1015.33 1015.49 1015.53 1015.58 1015.65 1015.77 1015.75 1015.75 1015.62 1015.62 1015.83 1016.03 1016.24 1016.31 1016.31 1016.43 1016.57 1016.58 1016.71 1016.74 1016.75 1016.83 1016.82 1016.72 1016.72 1016.80 1016.87 1016.89
1010.40 1010.95 1012.49 1012.48 1012.10 1010.74 1010.39 1009.83 1009.68 1009.83 1010.20 1010.59 1011.25 1012.40 1013.22 1013.55 1013.90 1014.37 1014.79 1014.86 1015.34 1015.63 1015.69 1015.71 1015.79 1015.87 1015.94 1015.99 1015.97 1015.89 1015.92 1016.09 1016.19 1016.35 1016.56 1016.65 1016.67 1016.76 1016.86 1016.90 1016.93 1017.00 1017.04 1016.98 1016.85 1016.77 1016.85 1017.00 1017.04
1011.46 1012.88 1013.81 1013.14 1011.97 1010.22 1009.21 1009.48 1009.37 1009.91 1010.78 1011.24 1011.36 1013.04 1013.74 1014.02 1014.03 1014.61 1014.93 1015.17 1015.47 1015.85 1015.84 1015.96 1016.10 1016.08 1016.19 1016.14 1016.29 1016.36 1016.43 1016.49 1016.57 1016.60 1016.81 1016.88 1016.82 1016.88 1017.00 1017.09 1017.28 1017.31 1017.13 1016.94 1017.03 1017.10 1017.10 1017.06 1017.06
1012.84 1014.48 1014.45 1013.44 1012.12 1010.66 1009.39 1009.27 1009.22 1009.98 1011.05 1011.86 1012.07 1012.99 1014.34 1014.48 1014.53 1015.07 1015.23 1015.48 1015.52 1015.84 1015.97 1016.06 1016.21 1016.20 1016.32 1016.40 1016.56 1016.81 1016.93 1017.01 1016.94 1016.94 1017.06 1017.08 1017.04 1017.27 1017.36 1017.40 1017.37 1017.23 1017.16 1017.23 1017.30 1017.54 1017.45 1017.27 1017.29
1013.25 1014.58 1014.72 1013.50 1011.66 1010.25 1009.25 1009.16 1009.32 1010.34 1011.19 1011.73 1012.06 1013.42 1014.81 1015.01 1015.15 1015.35 1015.62 1015.76 1015.76 1015.90 1016.08 1016.31 1016.22 1016.36 1016.38 1016.70 1017.01 1017.21 1017.24 1017.37 1017.32 1017.40 1017.37 1017.33 1017.45 1017.45 1017.41 1017.36 1017.24 1017.22 1017.44 1017.65 1017.86 1017.80 1017.75 1017.80 1017.68
1013.46 1014.40 1014.23 1013.68 1012.19 1011.33 1010.82 1009.28 1009.63 1009.76 1011.15 1011.79 1011.96 1013.58 1014.47 1014.89 1015.04 1015.37 1015.76 1016.10 1016.18 1016.23 1016.27 1016.38 1016.46 1016.58 1016.58 1016.89 1017.17 1017.34 1017.61 1017.67 1017.63 1017.68 1017.59 1017.51 1017.39 1017.37 1017.41 1017.25 1017.31 1017.47 1017.73 1018.02 1017.95 1017.84 1017.94 1018.20 1017.91
1013.34 1014.02 1014.57 1013.94 1013.15 1011.88 1011.59 1010.50 1010.14 1009.99 1010.79 1011.38 1011.72 1012.61 1013.76 1014.64 1015.19 1015.58 1015.92 1016.41 1016.72 1016.76 1016.63 1016.63 1016.81 1016.95 1017.00 1017.14 1017.25 1017.48 1017.63 1017.69 1017.74 1017.67 1017.61 1017.53 1017.67 1017.64 1017.57 1017.61 1017.72 1017.79 1017.93 1017.87 1017.85 1017.80 1017.89 1017.94 1017.83
1012.22 1013.88 1014.05 1014.68 1013.96 1013.27 1012.20 1011.02 1010.30 1010.59 1011.29 1011.98 1012.67 1013.80 1014.54 1015.41 1015.64 1015.84 1016.13 1016.54 1016.81 1017.03 1017.03 1016.99 1017.02 1017.15 1017.30 1017.24 1017.47 1017.80 1017.82 1017.77 1017.76 1017.82 1017.83 1017.87 1017.81 1017.84 1017.76 1017.91 1017.96 1017.91 1017.78 1017.91 1017.93 1017.91 1017.71 1017.51 1017.81
1012.12 1013.19 1014.00 1014.30 1013.79 1013.49 1012.75 1011.17 1011.12 1010.32 1011.55 1011.28 1012.56 1013.90 1014.94 1015.51 1015.83 1016.23 1016.44 1016.41 1016.77 1016.98 1017.10 1017.19 1017.22 1017.36 1017.55 1017.53 1017.76 1017.84 1017.66 1017.78 1017.91 1017.82 1017.62 1017.61 1017.48 1017.64 1017.83 1017.94 1018.13 1018.00 1017.83 1018.14 1017.84 1017.58 1017.66 1017.63 1017.40
1012.46 1013.33 1013.92 1014.10 1013.97 1013.72 1012.82 1012.30 1011.67 1010.45 1010.74 1011.03 1011.79 1013.26 1014.46 1015.21 1015.73 1016.20 1016.31 1016.52 1016.87 1016.97 1017.10 1017.25 1017.19 1017.52 1017.76 1017.75 1017.77 1017.93 1018.07 1018.12 1018.00 1017.75 1017.62 1017.48 1017.68 1018.03 1018.16 1018.01 1017.91 1017.99 1018.14 1018.27 1017.69 1017.89 1017.90 1017.41 1017.67
1012.22 1013.22 1013.65 1013.67 1013.93 1013.51 1012.99 1011.80 1010.80 1010.82 1010.97 1011.89 1012.46 1013.35 1014.45 1014.76 1015.49 1016.26 1016.49 1016.39 1016.82 1017.01 1017.27 1017.35 1017.46 1017.64 1017.82 1017.73 1017.78 1018.00 1018.08 1018.21 1017.86 1017.73 1017.72 1017.81 1017.97 1018.09 1017.96 1018.28 1017.88 1017.99 1018.27 1018.33 1017.75 1017.97 1017.71 1016.94 1018.84
1011.67 1012.76 1013.40 1013.51 1013.58 1013.61 1013.03 1012.20 1011.30 1011.51 1011.28 1012.11 1012.73 1013.62 1014.50 1015.02 1015.42 1016.26 1016.63 1016.54 1016.86 1016.83 1017.05 1017.45 1017.40 1017.35 1017.82 1017.75 1017.90 1017.97 1018.00 1017.74 1017.65 1017.86 1018.50 1018.24 1018.03 1018.09 1017.99 1018.27 1018.42 1018.30 1018.23 1018.23 1018.07 1018.43 1018.80 1018.97 1018.73
1012.25 1013.03 1013.36 1013.23 1013.14 1013.28 1013.30 1012.50 1011.98 1011.70 1011.27 1011.84 1012.55 1013.25 1014.05 1014.97 1015.54 1015.62 1015.65 1016.17 1016.54 1016.57 1016.86 1016.99 1017.22 1017.28 1017.86 1018.01 1017.77 1017.88 1017.79 1017.65 1017.78 1018.00 1018.31 1018.07 1017.48 1017.27 1017.66 1017.97 1018.43 1018.39 1018.15 1018.09 1018.25 1018.78 1019.18 1018.43 1018.66
1012.59 1012.98 1013.29 1013.07 1013.02 1013.13 1013.44 1013.01 1012.43 1012.27 1011.73 1011.87 1012.15 1012.76 1013.63 1014.39 1014.92 1015.12 1015.12 1015.51 1016.22 1016.70 1016.89 1016.89 1017.10 1017.36 1017.92 1018.17 1017.17 1017.67 1017.79 1017.50 1017.66 1017.92 1017.90 1017.52 1017.33 1017.32 1017.44 1017.77 1018.09 1018.41 1018.26 1018.58 1018.37 1018.94 1018.27 1018.39 1018.66
1012.90 1012.77 1012.17 1012.13 1011.87 1012.31 1012.57 1012.80 1012.68 1012.57 1012.31 1012.39 1012.36 1012.39 1012.83 1013.88 1014.65 1015.11 1015.29 1015.35 1015.65 1016.10 1016.64 1017.07 1016.98 1017.15 1017.68 1017.66 1017.74 1017.95 1017.80 1017.72 1017.56 1017.66 1017.95 1017.39 1017.57 1017.79 1017.75 1017.86 1018.02 1018.42 1018.56 1019.00 1018.61 1018.51 1018.38 1019.10 1019.57
1012.53 1012.48 1011.94 1011.55 1011.72 1012.27 1012.38 1012.64 1012.73 1012.81 1012.93 1012.82 1012.76 1012.76 1012.65 1013.15 1013.64 1014.01 1014.89 1015.50 1015.57 1016.04 1016.37 1016.71 1017.14 1017.47 1017.63 1017.67 1018.14 1018.17 1018.03 1017.84 1017.72 1018.05 1018.00 1017.71 1017.49 1017.94 1017.76 1017.87 1017.99 1018.53 1018.63 1018.92 1019.00 1018.45 1018.57 1017.98 1019.08
1010.98 1011.38 1011.39 1011.00 1011.21 1011.93 1012.35 1012.60 1012.86 1012.99 1013.19 1013.07 1012.54 1013.00 1013.18 1012.44 1012.63 1013.38 1014.19 1015.16 1015.48 1016.00 1016.37 1016.66 1016.94 1017.45 1017.80 1017.59 1017.74 1018.15 1018.14 1017.98 1017.66 1018.19 1018.02 1017.93 1017.97 1018.13 1017.51 1017.71 1018.42 1018.86 1019.01 1019.11 1018.77 1018.70 1019.18 1018.92 1019.22
1009.95 1010.64 1010.96 1010.91 1011.20 1011.80 1012.22 1012.67 1012.85 1013.33 1013.14 1012.94 1012.99 1013.01 1012.77 1012.95 1012.71 1013.01 1013.70 1014.76 1015.11 1015.36 1015.93 1016.43 1016.62 1017.01 1017.48 1017.29 1017.40 1017.75 1017.97 1017.88 1017.62 1017.68 1018.24 1018.01 1018.15 1018.35 1018.55 1018.66 1018.67 1019.09 1019.25 1019.18 1018.63 1018.75 1019.47 1019.53 1019.43
1009.26 1009.33 1010.21 1010.58 1010.95 1011.42 1012.20 1012.66 1012.87 1013.04 1013.04 1012.98 1013.12 1012.77 1012.54 1013.12 1013.00 1012.98 1013.63 1014.25 1014.60 1015.20 1015.65 1016.00 1016.28 1016.72 1017.21 1017.44 1017.66 1018.06 1018.18 1018.06 1018.22 1018.10 1018.27 1018.16 1017.99 1018.23 1018.73 1018.46 1018.55 1018.81 1019.01 1019.03 1018.87 1019.08 1019.54 1019.69 1019.55
1008.12 1008.42 1009.37 1010.21 1010.89 1011.32 1011.73 1012.81 1012.53 1012.71 1012.79 1012.83 1012.72 1012.78 1012.86 1013.21 1013.17 1013.16 1013.36 1014.07 1014.11 1014.42 1014.89 1015.45 1016.13 1016.69 1017.02 1017.35 1017.57 1017.93 1018.15 1018.44 1018.37 1018.22 1018.12 1018.31 1018.08 1017.92 1018.32 1018.91 1018.83 1018.80 1019.05 1018.82 1018.93 1018.94 1019.00 1019.02 1019.24
1006.49 1007.55 1008.57 1009.52 1010.44 1011.44 1012.37 1013.02 1012.09 1012.43 1012.65 1012.02 1011.95 1012.38 1012.71 1013.12 1013.19 1013.19 1013.42 1013.58 1013.99 1014.27 1014.53 1014.89 1015.80 1016.54 1016.82 1017.18 1017.69 1017.97 1018.20 1018.28 1018.15 1018.14 1018.19 1018.28 1018.26 1018.22 1018.24 1018.46 1018.73 1018.69 1018.68 1019.00 1019.22 1019.01 1018.84 1018.72 1018.90
1006.10 1007.36 1008.89 1010.25 1011.68 1012.67 1012.25 1012.75 1012.35 1012.56 1011.95 1011.67 1011.96 1011.99 1012.30 1012.45 1012.69 1012.96 1013.29 1013.40 1013.76 1014.39 1014.97 1015.25 1015.83 1016.37 1016.85 1017.13 1017.42 1017.96 1018.24 1018.28 1018.25 1018.31 1018.44 1018.41 1018.66 1018.65 1018.54 1018.30 1018.43 1018.65 1018.73 1018.92 1018.91 1018.89 1018.85 1018.85 1018.77
1005.84 1007.95 1009.74 1011.75 1012.75 1012.48 1011.61 1012.30 1011.66 1011.77 1011.09 1011.02 1010.69 1010.94 1011.58 1011.97 1012.29 1012.72 1013.02 1013.51 1013.66 1014.27 1014.58 1015.50 1015.75 1016.26 1016.71 1016.95 1017.33 1017.82 1018.20 1018.12 1018.07 1018.22 1018.28 1018.47 1018.61 1018.64 1018.54 1018.20 1018.45 1018.70 1018.36 1018.25 1018.28 1018.54 1018.66 1018.75 1018.53
1006.34 1007.98 1009.76 1011.23 1012.41 1012.21 1011.83 1012.04 1011.73 1011.02 1010.62 1010.84 1009.69 1010.14 1011.08 1011.72 1011.82 1012.26 1012.42 1012.96 1013.49 1013.81 1014.32 1015.16 1015.77 1015.96 1016.51 1016.74 1016.93 1017.39 1017.83 1017.93 1017.98 1018.20 1018.18 1018.30 1018.62 1018.34 1017.93 1017.84 1017.92 1017.89 1018.05 1018.14 1018.13 1018.40 1018.49 1018.45 1018.37
1006.40 1007.67 1008.79 1010.54 1011.79 1012.41 1012.71 1012.56 1012.01 1010.90 1010.08 1009.85 1009.82 1009.79 1009.99 1010.35 1011.03 1011.70 1012.01 1012.30 1013.23 1013.63 1014.12 1014.58 1015.39 1015.77 1016.01 1016.44 1016.66 1017.22 1017.53 1017.65 1017.76 1018.12 1018.23 1018.35 1018.37 1018.27 1017.94 1018.01 1018.20 1017.95 1017.95 1017.90 1017.99 1018.38 1018.18 1018.25 1018.49
1005.99 1007.22 1009.16 1011.04 1012.55 1013.24 1013.07 1012.81 1012.21 1011.35 1010.80 1010.93 1010.79 1010.74 1010.70 1010.37 1010.76 1011.37 1012.03 1011.99 1013.04 1013.49 1014.15 1014.38 1014.80 1015.14 1015.27 1015.94 1016.23 1016.68 1017.20 1017.50 1017.71 1017.83 1018.03 1018.14 1018.14 1018.07 1017.77 1017.88 1018.13 1018.11 1017.76 1017.59 1017.92 1018.14 1018.18 1018.25 1018.38
1007.71 1008.97 1010.16 1011.50 1012.86 1013.76 1013.93 1013.19 1011.32 1011.47 1011.35 1011.04 1010.76 1010.51 1010.25 1010.50 1010.77 1011.06 1011.81 1012.25 1012.98 1013.39 1014.18 1014.14 1014.54 1015.00 1015.25 1015.58 1015.83 1016.14 1016.66 1017.10 1017.51 1017.66 1017.87 1017.88 1017.93 1017.84 1017.70 1017.74 1017.87 1018.05 1018.04 1017.88 1018.06 1018.24 1018.36 1018.22 1018.24
1009.03 1010.48 1011.30 1012.86 1013.88 1014.16 1013.82 1012.46 1011.13 1011.06 1011.22 1011.40 1010.53 1009.70 1009.62 1010.02 1010.51 1010.99 1011.71 1012.76 1012.80 1013.40 1014.16 1014.31 1014.91 1015.31 1015.19 1015.34 1015.45 1015.76 1016.15 1016.59 1017.00 1017.36 1017.54 1017.57 1017.65 1017.62 1017.44 1017.55 1017.77 1017.93 1017.99 1017.99 1018.13 1018.11 1018.20 1018.29 1018.10
Thickness
5805 5803 5802 5790 5760 5749 5745 5756 5782 5771 5761 5766 5773 5766 5754 5751 5746 5725 5754 5752 5752 5749 5749 5751 5754 5755 5757 5760 5763 5767 5773 5772 5771 5770 5771 5770 5770 5768 5768 5766 5767 5768 5767 5765 5765 5764 5761 5761 5762
5804 5802 5793 5777 5745 5736 5738 5772 5763 5769 5767 5772 5770 5762 5754 5738 5752 5746 5744 5751 5751 5748 5749 5750 5751 5754 5756 5757 5760 5764 5769 5769 5769 5769 5769 5768 5769 5767 5767 5768 5767 5766 5765 5767 5765 5762 5760 5761 5761
5805 5798 5770 5756 5739 5737 5736 5765 5770 5772 5776 5777 5762 5766 5754 5740 5749 5747 5752 5752 5751 5748 5746 5747 5748 5750 5753 5756 5758 5763 5766 5766 5767 5768 5768 5768 5768 5766 5766 5764 5764 5766 5765 5765 5765 5763 5762 5761 5761
5792 5783 5765 5752 5746 5766 5760 5773 5780 5774 5776 5776 5765 5746 5754 5758 5752 5753 5753 5752 5748 5745 5744 5745 5746 5748 5750 5753 5756 5759 5761 5764 5767 5767 5766 5766 5766 5764 5763 5764 5766 5766 5765 5764 5764 5764 5763 5761 5761
5784 5763 5737 5738 5745 5760 5781 5782 5781 5764 5762 5762 5765 5740 5739 5752 5759 5755 5752 5750 5747 5744 5744 5744 5744 5746 5748 5750 5752 5755 5758 5761 5762 5762 5762 5763 5764 5765 5766 5766 5764 5763 5764 5765 5763 5762 5762 5762 5762
5752 5743 5728 5727 5746 5762 5781 5784 5784 5771 5764 5757 5754 5746 5735 5752 5752 5749 5750 5746 5746 5745 5744 5743 5743 5745 5746 5748 5748 5749 5753 5755 5758 5759 5759 5762 5764 5763 5763 5764 5764 5765 5765 5764 5763 5760 5760 5763 5762
5744 5733 5721 5735 5760 5767 5777 5790 5777 5764 5757 5754 5763 5737 5735 5741 5748 5749 5747 5746 5745 5743 5743 5741 5743 5743 5745 5744 5743 5745 5748 5751 5754 5755 5756 5759 5760 5762 5764 5765 5766 5766 5763 5761 5758 5760 5761 5761 5762
5746 5737 5733 5737 5750 5749 5765 5784 5782 5778 5759 5770 5768 5734 5730 5743 5751 5751 5749 5745 5743 5743 5743 5742 5741 5740 5743 5742 5742 5745 5746 5748 5749 5751 5755 5758 5761 5764 5766 5767 5766 5764 5761 5758 5760 5763 5762 5756 5758
5757 5734 5719 5729 5735 5751 5762 5770 5783 5786 5768 5769 5770 5760 5756 5753 5751 5748 5745 5742 5739 5739 5741 5741 5740 5739 5739 5740 5742 5743 5744 5746 5749 5753 5755 5760 5762 5765 5765 5763 5762 5762 5760 5763 5763 5765 5763 5761 5763
5759 5731 5728 5737 5743 5743 5754 5765 5773 5768 5764 5758 5755 5755 5753 5747 5745 5743 5742 5740 5736 5736 5739 5741 5739 5739 5738 5740 5740 5740 5743 5747 5749 5754 5759 5761 5764 5765 5765 5763 5761 5761 5763 5761 5761 5761 5764 5768 5763
5762 5741 5742 5735 5746 5750 5750 5767 5770 5770 5751 5766 5750 5747 5746 5744 5740 5738 5742 5744 5739 5739 5739 5739 5739 5738 5737 5740 5741 5742 5744 5748 5753 5758 5761 5765 5769 5769 5768 5765 5763 5767 5769 5762 5767 5769 5766 5767 5769
5749 5752 5750 5746 5746 5745 5751 5757 5758 5774 5768 5777 5767 5757 5751 5747 5743 5740 5742 5742 5739 5739 5740 5739 5739 5737 5736 5739 5741 5741 5742 5748 5754 5758 5762 5767 5769 5768 5768 5769 5770 5770 5768 5766 5774 5771 5769 5771 5764
5753 5748 5751 5755 5751 5753 5757 5759 5768 5767 5777 5773 5767 5758 5749 5751 5746 5743 5744 5745 5741 5740 5739 5737 5737 5738 5738 5740 5742 5743 5746 5751 5756 5759 5762 5764 5766 5767 5771 5770 5773 5772 5769 5766 5773 5771 5770 5775 5757
5767 5757 5753 5753 5752 5752 5749 5760 5770 5766 5778 5769 5766 5755 5751 5749 5747 5743 5743 5744 5740 5744 5745 5742 5741 5742 5741 5743 5744 5747 5750 5755 5758 5760 5759 5763 5767 5770 5773 5772 5770 5770 5772 5768 5771 5769 5763 5754 5757
5762 5745 5751 5754 5755 5752 5751 5749 5752 5765 5771 5764 5763 5761 5757 5749 5750 5748 5753 5748 5747 5748 5749 5746 5743 5745 5743 5744 5749 5750 5754 5758 5761 5762 5763 5770 5775 5781 5779 5777 5770 5770 5773 5774 5770 5765 5762 5765 5759
5749 5745 5729 5751 5756 5754 5749 5738 5758 5764 5767 5761 5763 5765 5761 5756 5754 5757 5759 5756 5751 5749 5749 5751 5750 5750 5745 5744 5754 5753 5756 5762 5763 5765 5769 5776 5778 5780 5782 5778 5773 5770 5772 5771 5774 5772 5772 5766 5760
5733 5730 5744 5750 5766 5758 5758 5744 5760 5763 5765 5760 5760 5768 5769 5762 5759 5759 5758 5759 5757 5757 5754 5753 5754 5755 5752 5751 5753 5753 5756 5762 5766 5768 5770 5778 5778 5778 5779 5778 5776 5772 5771 5770 5774 5771 5770 5761 5756
5725 5728 5745 5749 5760 5757 5750 5749 5760 5760 5760 5757 5758 5759 5770 5768 5765 5770 5764 5760 5762 5760 5759 5759 5756 5754 5755 5753 5753 5755 5758 5764 5768 5768 5773 5776 5778 5774 5775 5774 5776 5770 5771 5771 5772 5774 5772 5777 5762
5753 5747 5746 5758 5769 5757 5751 5752 5756 5756 5754 5757 5763 5754 5757 5774 5780 5777 5772 5765 5764 5761 5760 5759 5758 5756 5756 5759 5760 5758 5759 5765 5771 5770 5771 5772 5775 5773 5778 5775 5770 5765 5765 5768 5775 5774 5768 5769 5764
5755 5746 5742 5758 5765 5757 5754 5750 5757 5752 5754 5760 5760 5757 5761 5764 5774 5781 5777 5770 5767 5766 5764 5762 5762 5763 5760 5764 5764 5762 5762 5766 5770 5773 5767 5771 5772 5771 5768 5767 5767 5764 5764 5767 5774 5774 5764 5765 5763
5748 5745 5741 5751 5759 5763 5752 5743 5748 5756 5759 5761 5760 5763 5766 5761 5763 5770 5773 5772 5772 5767 5764 5765 5766 5764 5762 5762 5763 5761 5760 5764 5764 5768 5769 5770 5769 5766 5763 5764 5764 5765 5765 5766 5769 5770 5763 5761 5762
5737 5768 5761 5758 5746 5728 5757 5716 5743 5749 5751 5756 5760 5758 5760 5760 5765 5770 5771 5770 5773 5774 5772 5770 5767 5766 5763 5763 5764 5762 5759 5757 5762 5766 5771 5769 5771 5771 5767 5764 5767 5769 5766 5767 5766 5770 5769 5769 5763
5763 5775 5766 5761 5747 5744 5734 5721 5745 5747 5740 5752 5761 5761 5760 5758 5760 5765 5769 5771 5774 5778 5775 5773 5768 5765 5765 5764 5761 5761 5761 5761 5764 5767 5769 5771 5769 5769 5768 5767 5769 5769 5768 5765 5764 5768 5769 5770 5769
5785 5774 5758 5747 5721 5704 5732 5725 5730 5729 5748 5755 5754 5760 5760 5762 5764 5765 5770 5772 5773 5775 5772 5770 5766 5764 5762 5763 5763 5760 5761 5762 5763 5764 5765 5767 5768 5766 5766 5769 5769 5766 5766 5766 5766 5769 5771 5770 5771
5772 5737 5701 5699 5689 5697 5734 5722 5732 5747 5760 5761 5766 5765 5760 5763 5763 5762 5766 5766 5770 5771 5773 5768 5764 5761 5762 5762 5763 5760 5758 5762 5764 5765 5765 5765 5765 5765 5767 5770 5769 5767 5771 5773 5773 5772 5772 5772 5773
5760 5738 5701 5696 5688 5707 5731 5719 5723 5750 5763 5761 5776 5772 5765 5762 5763 5762 5769 5768 5769 5770 5770 5768 5763 5762 5762 5761 5761 5762 5760 5760 5763 5765 5765 5765 5762 5765 5770 5772 5772 5774 5773 5773 5773 5773 5772 5772 5774
5756 5738 5747 5721 5716 5700 5704 5720 5731 5750 5758 5763 5764 5768 5767 5770 5767 5762 5768 5773 5770 5769 5769 5769 5764 5762 5762 5761 5761 5760 5763 5764 5765 5763 5762 5762 5763 5765 5768 5769 5770 5770 5771 5772 5772 5770 5774 5773 5770
5765 5767 5728 5706 5700 5697 5701 5707 5708 5732 5744 5746 5747 5749 5754 5764 5764 5761 5761 5771 5768 5769 5766 5769 5768 5766 5767 5764 5762 5760 5759 5759 5761 5762 5761 5763 5765 5767 5769 5770 5768 5769 5772 5773 5773 5772 5774 5771 5769
5732 5722 5723 5715 5698 5683 5675 5691 5728 5728 5734 5738 5746 5749 5754 5755 5756 5758 5759 5762 5762 5766 5763 5766 5768 5764 5765 5763 5763 5762 5760 5759 5758 5760 5760 5762 5765 5767 5769 5769 5769 5768 5770 5773 5771 5769 5769 5771 5769
5734 5721 5709 5688 5692 5678 5680 5690 5739 5738 5738 5738 5747 5758 5762 5760 5756 5757 5755 5752 5758 5759 5758 5760 5756 5756 5760 5762 5763 5760 5762 5760 5758 5758 5760 5762 5763 5765 5769 5770 5768 5768 5768 5770 5768 5768 5769 5767 5769